User: anonymous   Login
Location: Moonridge Observatory
(39.2268°N, 77.7914°W)
Time: 01:33:20
(UTC-05:00)
Language:

CZ-2C R/B - Orbit

View from above orbital plane
View from above orbital plane
View from above satellite
View from above satellite

Ground track
Ground track

The orbit data is extracted from the following two-line orbital elements,

1 28480U 04046B   16041.39276211  .00000145  00000-0  71026-4 0  9999
2 28480  98.1668 163.8528 0141179 238.8211 156.6767 14.25567990584028
Epoch (UTC): 10 February 2016 09:25:34
Eccentricity: 0.0141179
inclination: 98.1668°
perigee height: 705 km
apogee height: 908 km
right ascension of ascending node: 163.8528°
argument of perigee: 238.8211°
revolutions per day: 14.25567990
mean anomaly at epoch: 156.6767°
orbit number at epoch: 58402

The dashed part of the orbit path shows where the satellite is in the earth's shadow,  

DLR